Wetbulb
54.59 54.18 54.06 54.04 54.03 53.94 54.64 55.95 57.56 58.53 59.85 61.00 60.24 59.08 59.34 59.05 59.53 57.15 52.33 55.86 58.35 64.20 63.09 58.10 56.81 54.71 53.74 49.33 50.97 49.40 40.80 38.45 40.86 41.41 42.67 47.24 46.58 49.70 49.78 46.95 47.77 48.11 50.27 57.94 62.54
54.18 54.21 53.83 53.16 53.56 53.75 53.33 53.91 55.39 56.82 58.25 59.94 60.47 59.32 59.46 59.71 55.74 53.06 58.89 62.67 63.68 64.14 58.33 55.84 51.65 52.79 47.43 47.70 47.98 44.51 39.95 42.01 46.10 45.83 44.30 47.15 46.91 48.05 47.31 46.58 45.83 46.95 55.27 60.62 61.72
55.04 54.41 54.18 54.24 54.28 53.76 53.17 52.91 53.02 54.35 56.28 58.39 60.25 59.54 59.48 58.72 51.61 50.89 62.76 63.99 64.73 63.92 58.56 57.34 53.68 50.67 46.38 46.55 46.19 44.62 40.55 46.42 47.88 49.35 48.24 47.30 47.31 49.07 46.13 44.49 46.19 45.89 51.90 55.67 55.63
55.21 54.64 54.40 54.26 53.85 53.04 52.94 53.21 52.94 53.02 55.08 56.94 58.26 59.64 58.96 55.58 40.87 55.07 63.46 65.06 64.98 61.12 57.10 54.10 51.45 46.82 44.58 43.77 47.08 41.91 45.95 47.42 48.21 49.62 47.87 45.84 48.69 46.37 47.25 47.84 50.41 49.95 50.17 50.13 53.11
54.54 54.50 53.90 53.68 53.41 53.46 52.69 51.95 52.65 53.07 53.40 55.52 57.22 59.34 55.07 48.89 49.66 59.13 63.56 64.31 61.03 57.65 54.17 51.98 48.54 46.50 42.60 44.11 45.21 41.94 44.51 47.29 48.69 48.75 47.32 48.04 46.51 46.56 47.16 50.34 51.54 50.98 51.74 51.19 51.08
53.43 52.93 52.77 53.09 53.09 52.81 52.46 52.16 52.17 52.45 52.58 53.78 55.98 58.28 51.37 42.96 56.22 59.40 59.61 59.52 59.12 57.15 54.19 52.79 50.25 49.30 45.94 44.80 43.42 44.86 45.98 45.91 46.85 46.98 47.15 46.31 45.89 46.33 46.86 49.79 49.60 49.75 49.64 48.91 50.77
52.82 52.60 52.36 52.39 52.20 52.04 51.88 51.78 52.02 52.26 52.46 53.28 55.17 55.50 48.70 46.01 55.95 57.51 58.82 57.31 58.81 57.34 53.39 55.18 53.94 49.77 48.23 44.86 47.87 46.43 42.04 43.83 44.73 45.66 45.06 46.71 43.81 43.14 48.55 49.30 48.08 48.07 48.30 49.91 49.11
52.08 51.77 51.68 51.55 51.53 51.38 51.47 51.50 51.70 51.66 52.34 53.25 55.20 54.04 44.24 54.27 54.12 55.21 56.28 55.03 56.46 57.81 56.78 56.92 54.59 49.86 46.99 46.91 45.00 42.06 41.49 36.43 42.96 44.99 45.86 45.50 38.48 44.39 47.85 45.83 46.52 47.48 47.44 48.56 50.61
51.46 51.17 51.06 51.07 51.23 51.08 51.17 51.29 51.57 52.13 52.68 52.89 51.99 50.00 42.41 55.43 50.64 54.68 55.51 53.41 55.82 56.87 56.92 57.40 54.54 48.37 45.92 40.96 36.70 37.65 31.78 35.11 39.07 44.90 44.22 42.96 38.45 45.53 48.40 45.65 44.16 44.36 44.52 46.50 48.66
51.18 51.01 50.92 50.85 50.88 50.89 50.90 51.15 51.40 51.10 50.34 51.20 52.67 44.33 45.84 45.81 50.98 51.65 52.48 55.42 53.02 53.61 51.89 51.65 49.09 44.09 41.38 39.54 30.89 32.10 31.91 34.71 35.29 40.22 41.36 39.12 39.79 43.06 44.34 44.08 42.80 42.88 43.13 43.59 45.72
50.70 50.53 50.64 50.78 50.73 50.55 48.36 44.22 40.14 40.29 44.67 43.02 44.65 44.16 45.14 50.82 52.69 49.92 51.59 52.94 52.65 49.42 43.77 46.66 41.50 38.62 39.26 38.77 38.33 38.97 35.56 33.36 36.34 40.80 37.47 36.32 35.79 38.69 41.83 40.01 40.19 42.21 42.17 42.83 44.33
50.20 49.93 50.21 50.41 50.29 50.31 46.67 39.21 41.81 42.73 36.85 45.69 46.81 47.01 49.62 50.69 45.43 48.22 52.39 47.07 47.15 40.71 42.47 40.11 37.87 41.39 41.80 41.76 39.30 38.66 34.69 32.77 36.22 38.84 36.85 35.46 35.17 39.05 40.77 41.69 42.45 43.16 43.76 44.22 43.79
49.56 50.03 50.22 50.51 50.56 46.19 43.55 42.69 47.95 46.40 37.93 40.69 46.47 45.62 47.42 49.11 44.47 45.05 49.18 46.60 43.76 40.20 39.43 35.94 37.95 42.06 40.35 37.84 37.13 34.11 32.61 32.26 32.92 36.05 34.61 33.51 32.89 34.34 38.24 40.13 41.73 43.95 44.84 44.80 44.44
50.40 50.36 50.50 50.44 45.38 43.04 41.85 48.16 49.15 45.64 27.53 36.56 40.84 45.21 47.59 48.17 42.69 49.05 50.87 45.97 43.62 39.18 39.31 38.54 41.00 39.56 37.76 36.90 36.70 30.91 36.35 36.35 34.71 30.86 25.23 32.78 23.28 29.10 34.72 36.60 38.74 38.78 38.62 40.78 41.90
50.76 50.97 50.94 50.88 45.50 41.78 44.88 46.25 46.70 41.38 19.77 38.80 41.66 50.95 47.76 43.50 43.73 44.69 50.08 46.94 39.99 39.75 40.55 36.16 37.39 36.74 35.24 36.90 38.08 34.16 37.94 35.24 33.71 28.66 25.84 26.59 24.31 26.89 31.39 32.70 35.38 37.32 39.04 38.40 40.01
50.55 51.02 51.42 49.03 47.72 46.06 46.66 46.08 42.59 27.16 18.76 34.56 41.51 41.16 41.10 42.12 42.49 44.73 45.29 47.42 46.48 41.85 40.49 36.88 40.35 39.04 37.75 38.94 38.60 39.35 34.54 32.20 30.50 26.48 17.02 24.20 25.31 23.88 28.50 32.54 33.78 36.11 37.62 38.49 39.15
51.27 50.86 49.51 49.50 42.80 47.53 47.18 41.36 23.50 19.82 32.95 34.14 37.17 39.75 38.84 38.24 39.19 41.49 39.79 37.88 35.70 31.97 33.13 36.23 34.77 38.09 39.73 34.86 37.11 34.92 28.87 17.70 14.73 12.90 17.71 27.03 24.62 26.20 32.89 35.45 35.63 37.25 37.47 38.15 38.69
50.70 49.14 48.50 48.13 47.48 45.45 43.53 32.41 21.03 29.82 33.03 39.92 38.75 38.51 35.79 37.73 38.67 39.37 37.53 34.60 37.33 33.37 31.54 26.22 23.09 34.56 37.75 34.90 32.43 31.53 29.46 20.24 16.57 16.31 19.55 27.53 23.05 28.19 35.76 38.27 37.80 38.35 37.98 37.49 38.28
49.67 46.56 46.88 46.75 46.70 44.02 38.04 25.51 26.32 31.07 38.48 37.22 37.51 33.81 34.31 36.36 37.75 36.90 35.99 35.23 35.11 35.10 27.69 24.99 26.90 37.00 37.43 38.08 36.63 31.15 24.61 31.06 22.50 20.64 14.73 22.04 26.03 32.97 35.45 34.76 35.35 37.58 38.49 38.85 39.90
41.69 41.83 42.92 47.21 46.00 42.44 34.87 31.42 32.43 36.19 39.97 38.69 31.74 34.32 31.18 33.22 33.03 34.67 34.30 36.62 35.35 37.47 36.83 32.90 25.02 35.13 36.84 38.17 36.85 33.11 34.55 22.52 17.95 9.02 14.16 20.26 21.75 26.52 31.20 31.91 35.82 35.99 35.89 37.84 39.19
40.16 35.86 43.25 48.41 46.33 38.38 31.83 32.24 36.30 42.12 41.86 37.97 33.30 32.80 33.23 32.91 33.14 32.14 32.67 35.70 37.50 36.91 37.73 34.62 29.57 29.12 34.60 31.19 30.12 30.68 26.31 27.42 26.38 22.69 16.33 18.50 22.36 30.85 31.88 32.53 34.14 35.29 37.12 37.46 39.01
38.84 28.71 44.70 48.54 36.69 37.05 33.01 34.83 39.95 40.00 41.51 40.58 37.50 35.47 33.94 34.63 32.41 31.68 31.75 34.37 39.36 38.69 33.84 36.25 31.30 20.42 28.71 33.96 35.70 33.51 30.70 29.03 18.90 17.44 21.17 20.53 23.59 35.81 33.64 34.48 36.48 39.49 42.03 43.09 43.66
34.98 35.20 44.27 44.03 33.12 35.07 37.40 39.15 41.09 41.03 40.53 40.02 37.20 37.96 37.90 33.95 30.66 32.91 34.75 38.71 40.32 39.04 35.28 36.79 29.90 19.60 25.05 32.09 34.34 31.17 32.15 32.22 30.08 26.93 17.85 21.95 24.01 35.44 35.32 39.24 40.81 40.87 43.34 43.81 42.63
34.75 27.84 34.89 40.29 38.72 36.25 36.75 35.96 36.57 41.44 40.48 40.58 37.42 39.30 36.50 34.26 35.78 33.82 34.14 38.44 41.38 41.16 43.60 40.60 31.73 23.65 21.06 23.12 30.31 26.22 31.21 32.14 30.51 25.78 24.61 26.19 28.92 34.35 37.12 39.00 41.96 43.54 44.09 43.32 42.32
37.03 36.40 38.61 30.76 34.25 37.38 38.99 38.29 36.29 36.58 40.87 40.46 37.91 37.42 36.23 33.18 33.65 33.37 35.59 35.96 39.33 43.50 41.53 37.77 25.69 26.68 30.72 32.35 31.67 30.88 31.05 31.65 28.60 30.84 27.74 30.28 31.22 34.82 37.92 40.19 42.89 43.74 41.31 40.99 40.31
38.13 37.51 38.79 34.67 37.20 35.74 36.30 34.76 36.77 37.97 38.55 37.33 37.40 39.01 38.02 35.60 35.34 33.17 35.50 34.18 33.74 35.90 35.68 37.95 30.71 32.13 29.62 31.33 31.68 28.83 31.70 32.15 32.66 32.83 33.21 33.20 32.50 39.50 42.95 43.88 41.15 40.05 40.03 40.34 41.52
38.77 42.64 40.69 35.68 34.63 33.79 33.83 36.36 37.73 39.13 39.87 40.88 39.47 39.11 38.34 39.32 40.83 39.66 39.13 38.72 37.37 35.20 33.79 33.75 31.17 28.11 18.78 29.41 29.52 25.92 30.34 32.06 32.45 33.86 33.64 32.46 36.91 42.87 41.91 41.59 38.77 37.57 36.09 37.88 40.66
MSLP
1017.70 1017.22 1016.92 1016.77 1016.49 1016.28 1015.84 1015.47 1015.12 1014.70 1014.19 1013.87 1013.99 1014.05 1014.09 1014.14 1014.15 1014.22 1013.58 1012.85 1012.89 1012.39 1012.49 1012.99 1013.30 1013.40 1013.78 1014.03 1014.11 1014.44 1015.25 1015.18 1014.29 1013.71 1012.76 1011.69 1011.45 1010.74 1009.98 1009.56 1009.17 1009.02 1009.18 1008.96 1009.51
1017.40 1017.01 1016.71 1016.39 1016.17 1015.95 1015.67 1015.41 1015.12 1014.73 1014.23 1013.74 1013.51 1013.80 1013.84 1013.85 1014.00 1013.29 1012.09 1012.04 1012.11 1012.08 1012.64 1013.03 1013.27 1013.57 1014.08 1013.99 1014.13 1014.41 1014.67 1014.06 1013.29 1012.78 1012.48 1011.90 1011.64 1011.30 1010.68 1010.07 1009.58 1009.48 1009.28 1009.09 1009.71
1017.05 1016.65 1016.36 1016.01 1015.83 1015.62 1015.38 1015.11 1014.87 1014.59 1014.28 1013.73 1013.33 1013.35 1013.41 1013.69 1013.47 1011.32 1010.34 1011.16 1011.50 1011.76 1012.29 1012.84 1013.27 1013.64 1013.97 1014.01 1014.07 1013.97 1013.92 1013.49 1012.76 1012.37 1012.32 1012.11 1011.75 1011.73 1011.22 1010.77 1010.34 1010.27 1009.86 1009.76 1010.02
1016.75 1016.35 1016.01 1015.71 1015.42 1015.22 1015.09 1014.98 1014.61 1014.31 1013.97 1013.64 1013.10 1012.73 1013.22 1013.63 1012.43 1010.03 1009.48 1010.36 1010.82 1011.39 1012.13 1012.80 1013.28 1013.73 1013.82 1013.96 1013.69 1013.83 1013.36 1013.07 1012.63 1012.39 1012.34 1012.17 1011.94 1011.78 1011.68 1011.03 1010.48 1010.62 1010.58 1010.45 1010.35
1016.26 1015.95 1015.76 1015.47 1015.20 1014.91 1014.65 1014.48 1014.19 1013.86 1013.61 1013.36 1012.97 1012.38 1013.06 1013.08 1011.28 1009.68 1009.43 1010.09 1010.58 1011.41 1012.09 1012.65 1013.17 1013.39 1013.56 1013.55 1013.68 1013.56 1013.32 1012.84 1012.51 1012.43 1012.42 1012.21 1012.13 1011.89 1011.52 1011.26 1010.66 1010.87 1011.07 1010.74 1010.63
1016.11 1015.79 1015.32 1014.95 1014.85 1014.69 1014.50 1014.19 1013.98 1013.56 1013.15 1012.96 1012.85 1012.28 1012.68 1012.17 1010.17 1009.66 1009.74 1010.33 1010.72 1011.50 1012.02 1012.50 1012.78 1012.91 1013.06 1013.13 1013.51 1013.12 1012.97 1012.81 1012.62 1012.60 1012.50 1012.29 1011.96 1011.98 1011.31 1011.08 1011.05 1010.86 1010.71 1011.06 1010.73
1015.73 1015.39 1015.16 1014.87 1014.58 1014.37 1014.03 1013.87 1013.61 1013.34 1012.87 1012.65 1012.58 1012.20 1012.14 1011.12 1010.01 1009.75 1009.98 1010.48 1010.77 1011.18 1011.75 1012.18 1012.44 1012.48 1012.78 1013.05 1013.00 1013.10 1013.23 1013.12 1012.82 1012.61 1012.43 1012.25 1011.57 1011.43 1011.30 1011.02 1011.05 1011.07 1010.85 1010.23 1010.68
1015.63 1015.23 1014.87 1014.51 1014.23 1014.02 1013.73 1013.47 1013.18 1013.04 1012.67 1012.46 1012.22 1011.83 1011.45 1010.28 1010.16 1010.15 1010.16 1010.60 1010.81 1011.03 1011.37 1011.79 1012.12 1012.46 1012.68 1012.91 1013.15 1013.44 1013.65 1013.66 1012.84 1012.49 1012.26 1012.57 1011.12 1011.18 1011.03 1011.21 1011.31 1010.94 1010.84 1010.43 1009.58
1015.30 1014.99 1014.70 1014.38 1013.93 1013.63 1013.32 1013.02 1012.70 1012.50 1012.34 1012.30 1012.31 1011.59 1010.78 1009.95 1010.02 1009.94 1010.03 1010.33 1010.73 1010.96 1011.46 1012.04 1012.19 1012.66 1012.95 1013.27 1013.88 1014.19 1014.41 1014.17 1013.47 1012.40 1012.42 1012.39 1011.71 1010.95 1010.66 1011.07 1011.25 1011.04 1010.65 1010.32 1009.74
1015.12 1014.81 1014.44 1014.08 1013.70 1013.36 1013.08 1012.55 1011.93 1011.84 1011.97 1012.11 1011.68 1011.58 1010.45 1009.62 1009.43 1009.80 1009.99 1010.30 1010.67 1011.38 1012.24 1012.49 1013.11 1013.30 1013.37 1013.55 1014.03 1014.58 1014.85 1014.50 1014.09 1012.92 1012.63 1012.51 1012.01 1011.19 1010.83 1010.95 1010.84 1010.72 1010.32 1009.88 1009.45
1014.79 1014.48 1014.18 1013.76 1013.35 1013.10 1012.86 1012.65 1012.21 1012.35 1011.83 1010.73 1010.45 1009.85 1009.08 1009.12 1009.26 1009.75 1009.91 1010.29 1010.96 1011.69 1012.48 1012.87 1013.20 1013.32 1013.65 1013.74 1013.96 1014.34 1014.83 1014.94 1014.25 1013.51 1013.38 1012.77 1012.33 1011.70 1010.84 1010.63 1010.34 1010.03 1009.71 1009.19 1008.82
1014.59 1014.17 1013.79 1013.42 1013.10 1012.88 1012.85 1012.99 1012.85 1012.98 1011.95 1010.95 1010.57 1009.87 1008.72 1008.93 1009.42 1009.78 1009.87 1010.43 1011.08 1011.94 1012.38 1013.52 1013.48 1013.51 1013.81 1014.02 1014.31 1014.74 1015.23 1015.14 1014.55 1014.06 1014.02 1013.39 1012.39 1011.53 1010.66 1009.80 1009.39 1009.04 1008.68 1008.26 1008.29
1014.27 1013.93 1013.54 1013.19 1012.89 1012.97 1013.00 1012.97 1012.66 1012.47 1012.22 1011.25 1010.27 1009.86 1009.18 1009.20 1009.52 1009.88 1010.17 1010.28 1011.19 1012.11 1012.62 1013.30 1013.20 1013.50 1013.83 1014.14 1014.60 1014.97 1015.22 1015.37 1015.41 1014.95 1014.77 1014.21 1012.34 1011.06 1009.86 1008.88 1008.22 1007.74 1007.58 1007.88 1007.77
1013.76 1013.41 1013.07 1012.94 1013.10 1013.12 1012.97 1012.87 1012.45 1012.13 1012.06 1011.07 1010.38 1009.82 1009.41 1009.30 1009.97 1010.15 1010.15 1010.59 1011.53 1012.29 1012.87 1013.19 1012.96 1013.08 1013.87 1014.23 1014.47 1015.06 1015.25 1015.47 1015.95 1016.30 1016.60 1015.87 1014.42 1012.29 1010.39 1009.29 1008.12 1007.60 1007.76 1007.62 1007.39
1013.22 1012.80 1012.53 1012.51 1012.41 1012.86 1013.06 1012.71 1012.64 1012.68 1011.83 1010.60 1010.08 1009.35 1009.33 1009.70 1009.83 1010.50 1010.43 1010.67 1011.57 1012.31 1013.07 1013.40 1013.11 1013.42 1013.93 1014.10 1014.31 1015.12 1015.56 1016.16 1016.80 1017.52 1017.80 1017.04 1016.61 1012.49 1011.03 1009.53 1008.33 1007.68 1007.33 1007.25 1007.24
1012.63 1012.04 1011.52 1011.39 1011.57 1012.19 1012.49 1012.50 1012.61 1012.60 1011.45 1010.14 1009.66 1009.64 1009.93 1010.22 1010.43 1010.88 1011.11 1011.32 1011.63 1012.41 1013.42 1013.57 1013.43 1013.59 1013.76 1014.17 1014.37 1015.27 1016.30 1017.27 1018.00 1018.76 1018.96 1017.01 1016.35 1013.60 1011.20 1009.45 1008.43 1007.85 1007.69 1007.25 1007.05
1011.79 1010.78 1010.69 1010.94 1011.61 1012.17 1012.47 1013.02 1012.90 1012.46 1011.60 1010.19 1009.70 1009.97 1010.42 1010.91 1011.19 1011.47 1012.00 1012.18 1012.54 1013.37 1014.23 1014.23 1014.22 1014.14 1013.98 1014.64 1015.16 1015.79 1017.27 1018.82 1019.80 1020.27 1018.73 1017.23 1016.41 1012.75 1010.37 1009.11 1008.55 1008.44 1007.89 1007.40 1007.20
1011.40 1011.05 1011.19 1011.44 1011.90 1012.40 1012.72 1012.98 1012.63 1011.45 1010.04 1009.63 1009.98 1010.39 1010.88 1011.40 1012.02 1012.21 1012.54 1012.90 1013.15 1013.43 1014.27 1014.85 1015.43 1014.70 1014.45 1014.68 1015.35 1016.47 1017.69 1019.10 1019.94 1020.34 1019.12 1017.24 1015.20 1011.51 1009.40 1008.82 1008.47 1008.11 1007.84 1007.53 1007.40
1011.69 1011.58 1011.91 1012.46 1012.29 1012.55 1012.95 1012.35 1012.35 1011.42 1009.89 1009.85 1010.54 1011.07 1011.59 1011.93 1012.13 1012.49 1012.82 1013.11 1013.37 1013.62 1014.38 1015.25 1015.13 1014.69 1014.54 1014.72 1015.34 1016.83 1017.83 1018.63 1019.85 1020.33 1019.85 1017.09 1014.28 1011.29 1009.44 1009.11 1008.78 1008.34 1007.96 1007.78 1007.50
1012.55 1012.54 1013.14 1013.06 1012.75 1013.02 1012.93 1012.54 1011.91 1011.25 1009.98 1010.13 1010.63 1011.33 1011.74 1012.17 1012.41 1012.73 1013.24 1013.06 1013.29 1013.41 1013.81 1014.26 1014.85 1014.92 1015.11 1015.25 1015.84 1016.55 1017.45 1018.79 1020.13 1020.84 1019.97 1017.11 1015.07 1011.92 1009.90 1009.13 1008.67 1008.48 1008.47 1008.27 1007.86
1012.93 1013.37 1013.67 1013.18 1013.33 1013.41 1013.04 1012.50 1011.52 1010.72 1010.30 1009.97 1010.30 1010.90 1011.44 1011.89 1012.48 1012.92 1013.05 1012.75 1012.80 1013.04 1013.46 1013.81 1014.68 1015.80 1015.65 1015.80 1016.05 1016.86 1017.41 1018.35 1019.46 1020.14 1019.83 1018.17 1013.40 1010.48 1009.56 1008.93 1008.92 1008.76 1008.47 1008.28 1007.86
1013.58 1014.06 1013.22 1013.42 1013.49 1013.01 1012.74 1012.50 1011.69 1010.88 1010.03 1009.69 1009.61 1010.21 1010.98 1011.57 1012.32 1012.55 1012.64 1012.19 1012.08 1012.54 1013.41 1013.60 1014.63 1016.24 1016.05 1015.83 1015.84 1016.31 1016.99 1017.92 1019.11 1019.38 1019.25 1018.06 1013.03 1009.72 1008.98 1008.74 1008.63 1008.23 1008.06 1007.92 1007.56
1014.44 1014.41 1013.47 1013.60 1013.72 1013.33 1012.65 1011.78 1011.23 1010.50 1009.75 1009.08 1009.20 1009.57 1010.34 1011.22 1012.02 1012.14 1012.07 1011.78 1011.84 1012.40 1012.84 1013.39 1014.78 1016.27 1016.40 1016.45 1016.25 1016.42 1016.65 1017.13 1017.82 1018.19 1017.94 1017.22 1012.18 1009.42 1008.80 1008.21 1008.06 1007.73 1007.56 1007.41 1007.33
1014.56 1014.62 1014.17 1013.66 1013.51 1013.25 1012.54 1011.92 1010.95 1010.07 1009.49 1008.94 1009.08 1009.34 1010.07 1010.77 1010.99 1011.82 1011.97 1011.94 1011.99 1012.25 1012.72 1013.44 1015.01 1015.97 1016.35 1016.20 1016.05 1016.28 1016.13 1016.46 1017.00 1017.26 1015.96 1014.14 1011.34 1009.16 1008.68 1008.28 1007.74 1007.40 1007.18 1006.95 1006.85
1015.14 1015.27 1015.17 1014.38 1013.59 1013.09 1012.54 1011.85 1011.01 1010.25 1009.66 1009.24 1009.73 1009.83 1010.04 1010.65 1011.23 1011.75 1012.07 1012.31 1012.43 1012.46 1013.07 1013.81 1015.26 1016.18 1016.28 1016.19 1015.95 1015.66 1015.43 1015.52 1015.77 1015.07 1014.92 1011.44 1011.75 1009.55 1008.77 1008.29 1007.76 1007.61 1007.41 1007.26 1007.10
1015.95 1015.86 1015.22 1014.49 1013.77 1013.18 1012.49 1011.83 1011.21 1010.56 1010.28 1010.22 1010.21 1010.18 1010.21 1010.75 1010.98 1011.46 1011.81 1012.23 1012.51 1013.04 1013.42 1014.18 1015.53 1016.54 1016.55 1015.68 1015.28 1014.93 1014.11 1014.10 1014.10 1013.79 1013.22 1011.89 1010.35 1009.29 1008.56 1008.39 1008.21 1008.38 1008.33 1007.99 1007.52
1016.73 1016.21 1015.96 1014.93 1014.17 1013.46 1012.54 1011.72 1011.41 1010.91 1010.79 1010.75 1010.59 1010.53 1010.81 1011.14 1011.03 1011.15 1011.21 1011.61 1011.99 1012.69 1013.64 1014.60 1015.63 1016.76 1016.54 1015.48 1014.75 1013.62 1011.83 1012.09 1012.09 1011.86 1011.34 1010.81 1009.26 1008.57 1008.39 1008.59 1009.12 1009.28 1009.16 1008.54 1007.80
Wind_Speed
17 16 15 15 15 17 18 16 19 21 19 15 12 11 10 8 8 5 14 9 11 12 3 1 4 4 2 2 3 4 3 5 6 8 5 1 3 5 4 3 0 1 7 7 8
15 17 16 17 16 15 15 17 18 19 21 22 13 11 9 6 6 15 12 18 18 20 6 4 3 5 3 4 3 4 5 8 5 4 2 5 1 4 6 5 2 3 3 7 5
18 16 17 15 14 17 16 16 17 18 21 24 15 11 6 3 7 9 19 23 20 16 11 6 1 3 4 3 5 4 6 8 4 5 2 3 8 2 2 4 2 2 4 4 3
22 19 18 18 12 12 17 18 17 18 18 22 26 12 5 3 8 3 5 22 19 9 7 5 4 2 5 6 5 3 6 6 3 5 3 2 3 2 5 7 4 1 3 2 5
21 19 16 18 17 17 15 16 17 17 19 20 24 8 5 5 8 5 5 19 11 8 9 6 5 5 6 6 4 3 4 4 7 8 5 5 6 8 7 8 10 4 6 6 6
21 16 16 18 17 16 15 16 17 19 19 19 20 6 3 12 5 4 5 8 10 8 7 7 7 7 4 3 6 3 8 4 5 4 4 6 6 6 4 7 9 7 9 8 9
18 17 17 18 17 18 17 15 17 17 19 19 19 5 5 12 3 6 8 6 7 9 6 6 5 5 5 2 3 2 2 3 4 4 4 3 14 8 10 9 10 10 10 13 10
18 17 16 16 17 16 17 16 18 16 18 19 18 6 6 6 9 4 4 5 6 6 7 7 5 4 4 1 3 3 4 1 4 4 7 8 17 3 10 6 11 13 10 11 18
18 16 15 16 16 15 16 16 16 16 16 14 9 5 5 0 5 7 5 6 6 3 5 6 4 3 1 6 3 5 2 4 8 9 6 10 3 15 14 8 9 10 10 11 13
18 17 16 16 16 16 14 16 18 12 7 6 7 3 5 5 6 5 4 4 3 10 6 3 3 3 2 3 7 6 3 3 6 5 1 6 10 10 8 7 10 9 10 10 10
18 17 17 18 17 15 9 5 3 0 4 5 5 5 5 3 7 5 4 6 5 2 5 2 3 7 9 3 4 6 2 4 5 6 5 7 6 10 11 7 11 12 12 11 13
20 17 17 16 15 15 3 1 3 3 4 9 9 8 4 6 10 8 6 6 5 6 5 4 4 4 4 4 2 1 6 6 7 3 3 7 16 14 15 14 15 18 17 17 12
17 17 16 15 16 4 2 3 4 5 2 4 4 7 6 4 6 11 7 5 7 7 5 6 4 9 5 3 5 4 4 3 5 6 0 7 11 7 7 8 10 17 19 13 14
17 16 15 13 6 3 1 2 1 1 3 4 6 5 4 6 4 4 3 5 3 8 6 2 3 9 6 4 5 2 1 3 2 4 4 5 9 6 9 10 7 7 6 9 10
20 19 19 13 3 2 3 5 3 1 5 5 7 2 4 0 14 6 3 3 6 6 5 5 5 7 5 3 5 3 3 3 2 3 4 4 3 11 5 8 9 7 6 4 8
24 24 24 6 3 6 7 2 2 4 3 4 7 10 7 5 3 7 3 3 2 5 7 2 0 3 5 4 4 6 5 6 4 3 3 6 5 6 4 5 2 4 7 7 7
26 18 6 4 3 7 6 2 5 2 4 6 9 14 11 5 5 9 7 3 5 5 4 2 2 1 4 7 4 6 6 3 5 3 7 2 3 9 9 9 5 9 10 11 8
14 11 7 3 7 6 1 1 3 2 5 11 11 13 7 6 9 9 8 4 2 5 4 5 2 6 3 5 5 4 6 5 5 3 5 1 7 8 7 9 7 6 8 6 8
9 7 5 3 5 3 2 4 1 4 4 10 12 8 5 4 7 5 2 5 3 4 5 5 2 2 3 3 7 4 2 3 2 2 4 5 8 11 6 1 3 6 7 7 7
2 4 7 5 5 3 2 4 3 3 11 7 5 1 5 4 5 5 7 4 3 8 2 4 5 2 2 4 2 4 5 4 4 1 5 5 6 9 7 2 6 7 7 8 7
4 5 3 4 3 2 2 3 4 4 3 2 5 5 4 6 5 4 11 3 9 5 6 1 5 2 5 4 7 3 1 4 4 4 4 5 7 7 5 2 5 6 7 8 9
3 4 4 2 3 1 3 3 5 2 3 3 4 6 5 5 5 4 8 5 9 6 7 2 5 3 7 2 5 4 6 6 5 5 3 3 11 6 4 3 4 13 16 14 16
3 1 2 3 3 3 4 1 3 2 5 3 3 4 5 6 5 3 4 4 10 7 8 4 2 2 3 4 2 4 5 5 2 3 6 1 9 3 7 18 20 15 15 13 12
3 4 4 2 0 1 4 3 5 4 3 4 5 12 5 3 3 4 3 4 4 6 9 8 3 6 6 6 3 4 5 7 7 4 4 13 22 26 23 20 19 18 15 12 12
4 3 2 4 5 3 2 4 4 6 6 6 4 2 4 4 4 4 3 3 5 4 3 5 4 2 5 7 5 7 8 8 10 16 8 20 18 25 24 23 17 16 9 9 8
2 3 5 4 3 4 3 2 5 5 6 6 6 3 4 4 3 6 6 3 4 0 4 2 2 1 5 6 7 6 11 12 15 16 18 23 26 21 13 15 9 10 11 12 13
4 3 1 5 5 3 2 2 3 2 3 4 2 6 9 3 4 3 4 6 7 8 4 5 5 2 6 4 6 6 9 11 6 6 8 7 10 10 14 11 6 10 11 14 12
Wind_Direction
329 329 329 331 332 333 328 323 329 331 322 280 245 249 255 261 272 261 239 227 203 212 98 22 195 214 115 233 212 136 117 214 218 171 222 311 16 314 306 233 109 56 157 189 160
318 320 321 321 326 331 327 326 324 324 325 326 244 245 250 261 263 254 227 216 220 224 237 220 221 166 180 192 220 154 167 220 213 191 248 306 337 312 349 323 212 61 9 107 147
315 310 310 312 325 324 323 319 314 313 315 325 287 237 243 269 257 242 210 211 205 224 197 205 130 170 185 155 206 188 202 226 259 270 151 339 320 309 274 284 306 14 230 156 117
306 305 307 307 308 315 320 322 315 310 313 316 321 215 176 238 228 235 223 194 190 153 146 150 143 170 178 201 220 206 200 212 234 263 296 251 255 272 218 241 255 275 302 260 224
318 301 310 316 315 315 307 307 310 308 304 314 316 209 134 229 249 261 242 184 179 137 170 166 154 174 175 182 241 234 259 245 248 270 253 258 230 242 211 259 277 250 194 230 264
328 331 315 308 317 314 309 309 305 298 301 301 307 194 135 235 239 191 98 152 151 153 168 152 181 205 205 182 164 243 218 245 269 233 237 252 242 190 266 233 281 295 283 202 221
326 324 316 316 316 313 311 305 297 297 289 293 294 220 191 229 337 164 145 180 167 178 158 180 224 181 171 144 202 189 147 324 249 224 255 13 274 221 229 253 264 274 266 286 205
330 324 323 317 314 311 304 298 295 286 286 288 293 212 225 221 258 228 152 147 177 184 195 148 172 126 161 162 45 132 72 320 262 265 245 160 252 275 242 234 254 265 271 267 281
336 328 326 318 318 316 304 298 289 285 278 277 288 197 222 275 185 219 160 175 142 91 140 117 71 154 142 133 45 18 206 231 306 216 232 186 239 246 249 216 244 259 264 270 267
334 331 327 320 319 319 317 302 286 277 270 242 263 112 276 200 158 186 189 194 130 118 94 106 99 140 123 156 193 197 217 263 241 314 356 272 255 281 276 222 238 244 253 254 258
337 331 324 321 316 324 331 344 9 122 229 208 153 226 136 165 133 186 182 159 120 69 148 64 114 163 194 220 95 101 175 252 273 284 322 274 270 268 273 281 270 258 248 249 249
331 327 322 323 325 323 354 52 334 124 288 224 203 254 121 140 157 192 148 142 136 125 113 109 199 165 170 199 194 294 289 280 276 257 272 293 284 264 253 252 237 248 258 253 251
331 324 323 322 324 0 282 290 198 141 268 242 237 200 142 125 141 184 163 110 129 130 126 143 200 192 170 178 198 181 193 236 259 317 339 322 278 278 290 261 255 242 244 255 250
327 318 316 324 325 303 74 38 96 183 86 172 201 223 173 139 85 109 156 114 129 151 123 175 217 149 155 170 144 160 125 108 49 31 263 22 289 299 280 295 263 276 264 246 247
327 317 314 310 176 215 155 160 144 260 120 181 149 146 89 46 131 185 38 43 140 149 140 224 146 127 129 171 141 167 98 81 64 60 6 292 232 276 275 286 292 264 252 269 268
327 314 308 302 197 144 163 179 30 46 248 160 130 149 119 128 37 130 98 33 61 115 42 94 62 94 153 87 109 134 72 40 50 61 332 239 189 274 248 234 292 24 287 271 268
321 334 339 147 123 141 131 87 61 153 275 117 133 145 121 107 113 141 158 109 138 131 143 314 25 47 104 87 47 85 67 343 350 4 229 177 191 247 275 264 285 300 281 271 269
3 18 36 87 103 121 86 5 76 188 277 128 131 115 98 124 127 137 152 120 67 81 101 135 282 185 196 150 163 161 146 167 241 228 282 313 240 258 243 296 288 301 292 300 298
29 34 52 108 123 83 237 47 329 312 8 129 106 92 111 67 122 133 146 163 190 164 134 132 326 132 131 120 122 218 147 186 103 17 30 260 304 288 275 183 25 4 14 7 347
48 59 41 334 9 15 33 300 264 224 114 115 88 139 138 122 110 128 163 200 204 194 163 193 86 75 71 82 96 137 163 59 2 31 275 288 268 243 278 207 349 337 334 330 320
50 58 267 336 16 1 329 356 317 70 53 29 133 118 119 128 117 140 184 257 180 206 156 129 101 306 96 202 177 133 263 61 111 162 200 304 254 214 243 208 316 317 291 285 287
63 64 252 13 6 284 6 356 305 279 290 251 116 86 134 110 141 163 186 250 180 146 154 222 109 160 209 226 171 164 186 152 132 253 232 181 270 282 276 194 290 314 317 317 304
89 245 323 116 41 5 301 239 241 295 280 6 124 132 143 140 129 183 144 308 165 152 158 169 58 52 20 48 106 205 200 188 162 90 203 161 259 203 283 316 311 304 304 301 289
51 24 325 29 266 351 2 1 359 291 296 50 80 120 116 118 100 143 105 48 137 156 163 95 147 162 183 202 147 203 205 198 184 199 236 228 278 287 296 305 310 307 303 287 287
17 7 7 328 359 24 14 319 345 16 352 26 53 126 126 114 96 103 100 91 33 107 101 112 181 107 259 244 228 220 223 209 202 231 248 279 282 286 295 304 310 319 331 325 317
49 351 344 297 312 328 353 333 340 355 29 8 90 78 100 82 206 169 129 134 180 348 98 26 157 32 279 261 229 245 241 230 236 249 255 265 275 278 293 315 336 345 338 313 298
334 324 351 300 323 358 275 287 22 348 34 61 209 93 68 48 31 66 144 166 164 147 127 130 141 83 269 329 311 280 228 199 196 213 203 233 258 321 317 325 2 339 333 327 306